This demonstration page uses our WeatherBlox Daily Observations layout. Learn more.

Left ArrowRight Arrow

Hourly Observations for April 23, 2015

Temp ( °F °C ) Dew Point ( °F °C ) Humidity (%) Winds ( mph kmh ) Pressure ( in mb ) Visibility ( mi km ) Precip ( " mm )
12:53 am 00:53 Clear 44 6.7 27 -2.8 51 51 S 7 11 30.01 1016 10 16 0.00 0.00
1:53 am 01:53 Clear 42 5.6 27 -2.8 55 55 SSE 7 11 30.01 1016 10 16 0.00 0.00
2:53 am 02:53 Clear 43 6.1 26 -3.3 51 51 S 8 13 29.99 1016 10 16 0.00 0.00
3:53 am 03:53 Clear 41 5 27 -2.8 57 57 S 8 13 29.99 1016 10 16 0.00 0.00
4:53 am 04:53 Clear 40 4.4 26 -3.3 58 58 S 8 13 29.99 1016 10 16 0.00 0.00
5:53 am 05:53 Clear 39 3.9 27 -2.8 62 62 S 8 13 30.00 1016 10 16 0.00 0.00
6:53 am 06:53 Sunny 38 3.3 27 -2.8 65 65 S 5 7 30.02 1017 10 16 0.00 0.00
7:53 am 07:53 Sunny 42 5.6 28 -2.2 58 58 SSE 3 6 30.04 1017 10 16 0.00 0.00
8:53 am 08:53 Sunny 46 7.8 29 -1.7 51 51 S 10 17 30.04 1017 10 16 0.00 0.00
9:53 am 09:53 Sunny 51 10.6 30 -1.1 44 44 SSE 12 19 30.03 1017 10 16 0.00 0.00
10:53 am 10:53 Sunny 57 13.9 28 -2.2 33 33 S 15 24 30.02 1017 10 16 0.00 0.00
11:53 am 11:53 Sunny 61 16.1 29 -1.7 30 30 SSE 14 22 30.00 1016 10 16 0.00 0.00
12:53 pm 12:53 Sunny 61 16.1 30 -1.1 31 31 S 12 19 29.97 1015 10 16 0.00 0.00
1:53 pm 13:53 Sunny 65 18.3 33 0.6 31 31 SSE 15 24 29.93 1014 10 16 0.00 0.00
2:53 pm 14:53 Mostly Sunny 66 18.9 34 1.1 30 30 S 14 22 29.91 1013 10 16 0.00 0.00
3:53 pm 15:53 Sunny 66 18.9 38 3.3 36 36 SSE 20 31 29.88 1012 10 16 0.00 0.00
4:53 pm 16:53 Sunny 65 18.3 39 3.9 39 39 SSE 20 31 29.86 1011 10 16 0.00 0.00
5:53 pm 17:53 Cloudy 64 17.8 39 3.9 40 40 S 17 28 29.85 1011 10 16 0.00 0.00
6:53 pm 18:53 Mostly Cloudy 62 16.7 40 4.4 44 44 SSE 16 26 29.85 1011 10 16 0.00 0.00
7:53 pm 19:53 Cloudy 61 16.1 42 5.6 50 50 S 12 19 29.83 1010 10 16 0.00 0.00
8:53 pm 20:53 Cloudy 59 15 42 5.6 54 54 SSE 10 17 29.83 1010 10 16 0.00 0.00
9:53 pm 21:53 Cloudy 58 14.4 40 4.4 51 51 SSE 13 20 29.84 1011 10 16 0.00 0.00
10:53 pm 22:53 Cloudy 56 13.3 40 4.4 55 55 SSE 10 17 29.83 1010 10 16 0.00 0.00
11:53 pm 23:53 Mostly Clear 55 12.8 42 5.6 62 62 S 12 19 29.84 1011 10 16 0.00 0.00

Powered by AerisWeather